Home > Weather > Mamoutzou > Past weeks

Flag for Mayotte Past Weather in Mamoutzou, Mayotte — Yesterday and Last 2 Weeks

Now
73 °F

Mild.


Feels Like: 74 °F
Forecast: 74 / 79 °F
Wind: 5 mph from Southwest

Location: Dzaoudzi / Pamanzi Mayotte

Current Time: Jul 26, 2016 at 3:50:37 AM

Latest Report: Jul 26, 2016 at 3:30 AM


Visibility: N/A

Pressure: 30.01 "Hg

Humidity: 78%

Dew Point: 66 °F

Location of MamoutzouLocation

Past Weather in Mamoutzou — Graph

°F

Mamoutzou Temperature Yesterday

Maximum temperature yesterday: 82 °F (at 10:00 AM)
Minimum temperature yesterday: 73 °F (at 12:00 AM)
Average temperature yesterday: 78 °F

High & Low Weather Summary for the Past Weeks

 TemperatureHumidityPressure
High82 °F (Jul 11, 11:30 AM)94% (Jul 16, 2:30 AM)30.12 "Hg (Jul 16, 2:30 AM)
Low68 °F (Jul 15, 1:00 AM)1% (Jul 14, 8:00 AM)29.95 "Hg (Jul 20, 2:30 PM)
Average77 °F69%30.04 "Hg
* Reported Jul 11 3:00 AM — Jul 26 3:00 AM, Mamoutzou, Weather by CustomWeather, © 2016

Note: Actual official high and low records may vary slightly from our data, if they occured in-between our weather recording intervals... More about our weather records

Advertising

Mamoutzou Weather History for the Previous 24 Hours

Scroll right to see more
 ConditionsComfort  
Time TempWeatherWind HumidityBarometerVisibility
3:00 AM
Tue, Jul 26
73 °FMild.7 mph83%30.01 "HgN/A
2:30 AM72 °FMild.7 mph88%30.01 "HgN/A
2:00 AM73 °FMild.6 mph78%30.01 "HgN/A
1:30 AM73 °FMild.3 mph78%30.01 "HgN/A
1:00 AM75 °FMild.5 mph74%30.01 "HgN/A
12:30 AM75 °FMild.7 mph78%30.01 "HgN/A
12:00 AM75 °FMild.3 mph83%30.04 "HgN/A
11:30 PM
Mon, Jul 25
75 °FMild.6 mph83%30.04 "HgN/A
11:00 PM75 °FMild.8 mph83%30.04 "HgN/A
10:30 PM75 °FMild.5 mph83%30.04 "HgN/A
10:00 PM75 °FMild.3 mph83%30.04 "HgN/A
9:30 PM73 °FMild.5 mph89%30.07 "HgN/A
9:00 PM73 °FMild.3 mph83%30.04 "HgN/A
8:30 PM73 °FMild.2 mph83%30.04 "HgN/A
8:00 PM73 °FMild.1 mph83%30.04 "HgN/A
7:30 PM75 °FMild.2 mph78%30.04 "HgN/A
7:00 PM75 °FMild.3 mph78%30.04 "HgN/A
6:30 PM77 °FWarm.5 mph74%30.01 "HgN/A
6:00 PM77 °FPassing clouds.6 mph74%30.01 "HgN/A
5:30 PM79 °FPassing clouds.8 mph70%30.01 "HgN/A
5:00 PM81 °FPassing clouds.6 mph70%29.98 "HgN/A
4:30 PM81 °FPassing clouds.8 mph66%29.98 "HgN/A
4:00 PM79 °FScattered clouds.7 mph74%29.98 "HgN/A
3:30 PM82 °FPassing clouds.7 mph66%29.98 "HgN/A
3:00 PM82 °FPassing clouds.7 mph66%29.98 "HgN/A
2:30 PM82 °FScattered clouds.8 mph66%29.98 "HgN/A
2:00 PM82 °FScattered clouds.8 mph70%29.98 "HgN/A
1:30 PM82 °FPassing clouds.8 mph66%29.98 "HgN/A
1:00 PM82 °FPassing clouds.9 mph66%30.01 "HgN/A
12:30 PM82 °FScattered clouds.9 mph66%30.01 "HgN/A
12:00 PM81 °FScattered clouds.9 mph66%30.01 "HgN/A
11:30 AM82 °FPassing clouds.12 mph66%30.04 "HgN/A
11:00 AM82 °FPassing clouds.10 mph66%30.04 "HgN/A
10:30 AM82 °FPassing clouds.10 mph62%30.04 "HgN/A
10:00 AM82 °FScattered clouds.9 mph66%30.04 "HgN/A
9:30 AM81 °FPassing clouds.12 mph66%30.04 "HgN/A
9:00 AM81 °FPassing clouds.10 mph66%30.04 "HgN/A
8:34 AM79 °FPartly sunny.12 mph70%30.04 "HgN/A
8:00 AM79 °FPartly sunny.12 mph65%30.04 "HgN/A
7:30 AM79 °FScattered clouds.12 mph65%30.04 "HgN/A
7:00 AM77 °FScattered clouds.13 mph69%30.01 "HgN/A
6:30 AM77 °FPassing clouds.12 mph69%30.01 "HgN/A
6:00 AM77 °FPassing clouds.13 mph69%30.01 "HgN/A
5:30 AM77 °FPassing clouds.14 mph69%30.01 "HgN/A
5:00 AM75 °FPassing clouds.12 mph78%30.01 "HgN/A
4:30 AM73 °FMild.8 mph83%29.98 "HgN/A
4:00 AM75 °FMild.5 mph78%29.98 "HgN/A
3:30 AM75 °FMild.7 mph78%29.98 "HgN/A
3:00 AM75 °FMild.7 mph83%29.98 "HgN/A
Weather by CustomWeather, © 2016

See weather overviewHow to use our weather pages